This is the latest recevied weather packets stored in our database for station/object KF7SOJ. If no packets are shown the sender has not sent any weather packets the latest 10 day(s).
| Time | Temp. | Humidity | Pressure | Rain* | Wind** | Luminosity | Snow |
|---|---|---|---|---|---|---|---|
| 1788483319 | 28.89° C | 19% | 925.6 hPa | 0 mm | - | 74 W/m² | - |
| 1788483015 | 28.89° C | 19% | 925.6 hPa | 0 mm | - | 78 W/m² | - |
| 1788482710 | 28.89° C | 19% | 925.5 hPa | 0 mm | - | 88 W/m² | - |
| 1788482410 | 29.44° C | 19% | 925.4 hPa | 0 mm | - | 87 W/m² | - |
| 1788482107 | 29.44° C | 19% | 925.6 hPa | 0 mm | - | 117 W/m² | - |
| 1788481801 | 29.44° C | 19% | 925.4 hPa | 0 mm | - | 122 W/m² | - |
| 1788481498 | 30° C | 18% | 925.4 hPa | 0 mm | - | 327 W/m² | - |
| 1788481197 | 30° C | 18% | 925.6 hPa | 0 mm | - | 327 W/m² | - |
| 1788480893 | 30° C | 18% | 925.5 hPa | 0 mm | - | 327 W/m² | - |
| 1788480593 | 30° C | 18% | 925.5 hPa | 0 mm | - | 327 W/m² | - |
| 1788480292 | 30° C | 18% | 925.8 hPa | 0 mm | - | 327 W/m² | - |
| 1788479988 | 30° C | 18% | 925.6 hPa | 0 mm | - | 327 W/m² | - |
| 1788479684 | 30° C | 18% | 925.5 hPa | 0 mm | - | 327 W/m² | - |
| 1788479383 | 30° C | 18% | 925.5 hPa | 0 mm | - | 327 W/m² | - |
| 1788479079 | 30° C | 18% | 925.4 hPa | 0 mm | - | 327 W/m² | - |
| 1788478775 | 30° C | 18% | 925.5 hPa | 0 mm | - | 327 W/m² | - |
| 1788478471 | 30° C | 18% | 925.5 hPa | 0 mm | - | 327 W/m² | - |
| 1788478174 | 30° C | 19% | 925.5 hPa | 0 mm | - | 354 W/m² | - |
| 1788477866 | 30° C | 18% | 925.4 hPa | 0 mm | - | 358 W/m² | - |
| 1788477567 | 30° C | 19% | 925.5 hPa | 0 mm | - | 374 W/m² | - |
| 1788477262 | 29.44° C | 19% | 925.6 hPa | 0 mm | - | 401 W/m² | - |
| 1788476962 | 29.44° C | 19% | 925.5 hPa | 0 mm | - | 401 W/m² | - |
| 1788476657 | 30° C | 18% | 925.5 hPa | 0 mm | - | 418 W/m² | - |
| 1788476354 | 30° C | 19% | 925.5 hPa | 0 mm | - | 436 W/m² | - |
| 1788476050 | 29.44° C | 19% | 925.5 hPa | 0 mm | - | 452 W/m² | - |
* Rain latest hour (hover to see other rain measurements)
** Current wind speed in m/s (hover to see current wind gust speed)